Regional Weather Roundup
Issued by NWS

Home | Current Version | Previous Version | Text Only | Print | Product List | Glossary On
Versions: 1 2 3 4 5 6 7 8 9 10 11 12 13 14 15 16 17 18 19 20 21 22 23 24 25 26 27 28 29 30 31 32 33 34 35 36 37 38 39 40 41 42 43 44 45 46 47 48 49 50
613
ASUS44 KFWD 220410
RWRTX
NORTH TEXAS HOURLY WEATHER ROUNDUP
NATIONAL WEATHER SERVICE FORT WORTH TX
1000 PM CST SAT JAN 21 2017

NOTE: "FAIR" INDICATES FEW OR NO CLOUDS BELOW 12,000 FEET WITH NO
SIGNIFICANT WEATHER AND/OR OBSTRUCTIONS TO VISIBILITY.

TXZ118-119-220500-
DALLAS/FORT WORTH METROPLEX

CITY           SKY/WX    TMP DP  RH WIND       PRES   REMARKS
DFW AIRPORT    CLOUDY    60  43  53 SW14G23   29.42S
DALLAS LOVE    CLOUDY    62  43  49 S7        29.45F
FTW MEACHAM    CLOUDY    60  40  47 SW17G29   29.44S
DAL-EXECUTIVE  CLOUDY    59  45  59 SW9G20    29.45F
FTW-ALLIANCE   CLOUDY    58  41  53 SW13G23   29.42F
FTW-NAS-JRB    PTCLDY    59  42  53 SW20      29.45F
FTW-SPINKS     CLOUDY    58  43  57 SW14      29.48F
ARLINGTON      CLOUDY    61  41  47 SW14G21   29.44F
GRAND PRAIRIE  MOCLDY    60  41  48 SW13G20   29.47S
ADDISON        CLOUDY    61  47  60 S9        29.47R
MESQUITE       CLOUDY    58  46  63 S6        29.50R
LANCASTER      CLOUDY    58  45  60 SW3       29.49F
$$

TXZ091>094-102>105-117-120-121-131>134-220500-
NORTH CENTRAL TEXAS

CITY           SKY/WX    TMP DP  RH WIND       PRES   REMARKS
SHRMAN/DENISON MOCLDY    58  51  77 S15       29.43R
GAINESVILLE    MOCLDY    55  46  72 S9        29.43
BOWIE          PTCLDY    62  35  36 SW8       29.40F
BRIDGEPORT     PTCLDY    62  37  39 SW10G20   29.43F
DECATUR        PTCLDY    61  32  33 SW14      29.42F
DENTON         CLOUDY    58  44  60 S13       29.43S
MCKINNEY       CLOUDY    57  50  77 S10       29.44R
BONHAM         CLOUDY    55  50  82 S14       29.41F
GREENVILLE     LGT RAIN  57  54  88 SW14G20   29.47R
ROCKWALL       LGT RAIN  58  46  64 SW12G22   29.49R
TERRELL        LGT RAIN  60  46  59 W16G31    29.53R
WAXAHACHIE     MOCLDY    58  45  61 SW8       29.48F
CLEBURNE       CLOUDY    55  45  67 SW15      29.49F
GRANBURY       CLOUDY    58  42  55 SW13G23   29.47F
$$

TXZ083>090-098>101-113>116-127>130-139>142-154-155-220500-
WESTERN NORTH TEXAS

CITY           SKY/WX    TMP DP  RH WIND       PRES   REMARKS
WICHITA FALLS  PTCLDY    49  38  65 SW8       29.38R
WF-KICKAPOO    MOCLDY    57  39  50 SW6       29.40S
VERNON         PTCLDY    52  37  56 SW10      29.37S
ABILENE        CLEAR     53  31  42 W20G29    29.49F
ABILENE-DYESS  CLEAR     54  34  46 W17G26    29.48S
GRAHAM         PTCLDY    59  37  44 SW15G21   29.42S
BRECKENRIDGE   CLOUDY    59  34  39 W16G22    29.46S
CISCO          MOCLDY    55  36  47 SW15G22   29.49S
RANGER         PTCLDY    54  37  54 SW13      29.49S
MINERAL WELLS  CLOUDY    59  37  44 SW15      29.43F
STEPHENVILLE   PTCLDY    55  41  60 SW12G20   29.51F
COMANCHE       CLOUDY    55  42  62 SW15G22   29.52F
BROWNWOOD      MOCLDY    54  39  58 SW14G20   29.54S
COLEMAN        PTCLDY    54  36  50 W17G23    29.53F
$$

TXZ143>147-156>162-174-175-220500-
CENTRAL TEXAS

CITY           SKY/WX    TMP DP  RH WIND       PRES   REMARKS
WACO           CLOUDY    55  48  77 SW9       29.53F
WACO-TSTC      PTCLDY    55  48  76 W8        29.53F
WACO-MCGREGOR  PTCLDY    55  48  77 SW12      29.55S
HILLSBORO      CLOUDY    56  44  64 SW8       29.49F
CORSICANA      LGT RAIN  58  48  69 W9G22     29.52F
MEXIA          RAIN      57  46  68 SW10G25   29.54F
HEARNE         CLOUDY    60  47  64 W10       29.60R
CAMERON          N/A     60  47  60 SW3       29.57F
TEMPLE         CLOUDY    56  47  71 W8        29.56S
KILLEEN        MOCLDY    55  45  67 SW6         N/A
KILLEEN-SKYLRK CLOUDY    56  46  69 SW6       29.54F
FORT HOOD      CLOUDY    55  46  72 SW3       29.51F
GATESVILLE     CLOUDY    55  45  67 S9        29.53F
HAMILTON       CLOUDY    53  44  71 SW12      29.52F
LAMPASAS       CLOUDY    55  44  65 W9        29.55F
$$

TXZ095>097-106>112-122>126-135>138-148>153-164>167-220500-
EAST TEXAS

CITY           SKY/WX    TMP DP  RH WIND       PRES   REMARKS
PARIS          CLEAR     54  48  82 SW10      29.41S
SULPHUR SPRNGS CLEAR     55  50  86 SW9       29.45S
MOUNT PLEASANT CLEAR     57  56  96 SW3       29.43F
GILMER         CLOUDY    59  57  93 CALM      29.43F
MINEOLA        PTCLDY    61  55  82 SW8       29.46R
TYLER          MOCLDY    59  57  93 SW6       29.47R
LONGVIEW       PTCLDY    58  57  97 W6        29.45S
MARSHALL       CLEAR     58  55  89 N3        29.46F
ATHENS         CLOUDY    61  43  51 W16G25    29.53R
PALESTINE      CLOUDY    62  52  70 W22G35    29.55R
JACKSONVILLE   CLOUDY    61  57  88 SW5       29.52R
HENDERSON      CLEAR     59  57  91 W5        29.48S
CENTER         CLEAR     64  60  90 CALM      29.49R
NACOGDOCHES    PTCLDY    57  54  88 SW5       29.48R
LUFKIN         PTCLDY    57  56  96 CALM      29.47F
$$

SUPPLEMENTAL OBSERVATIONS (CENTRAL)

CITY           SKY/WX    TMP DP  RH WIND       PRES   REMARKS
CADDO GRASSLND   N/A     57  50  77 S9          N/A
PAT MAYSE LAKE   N/A     55  52  88 S6          N/A
GREENVILLE       N/A     55  52  88 SW8         N/A
CEDAR HILL       N/A     59  43  55 S7G17       N/A
MCGREGOR         N/A     54  48  82 W7          N/A
TEMPLE           N/A     57  43  58 W5G17       N/A
$$

SUPPLEMENTAL OBSERVATIONS (WEST)

CITY           SKY/WX    TMP DP  RH WIND       PRES   REMARKS
POSSUM KINGDOM   N/A     61  36  39 SW15G25     N/A
LBJ GRASSLAND    N/A     63  34  34 S10G20      N/A
GRANBURY         N/A     57  41  54 SW15        N/A
HAMBY            N/A     54  34  47 W18         N/A
$$

SUPPLEMENTAL OBSERVATIONS (EAST)

CITY           SKY/WX    TMP DP  RH WIND       PRES   REMARKS
CLARKSVILLE      N/A     55  54  94 S9          N/A
TEXARKANA        N/A     55  54  94 SW2         N/A
LINDEN           N/A     55  54  94 S1          N/A
GILMER           N/A     61  57  88 SW7         N/A
HENDERSON        N/A     59  55  88 SW7         N/A
LUFKIN           N/A     57  55  94 MISG        N/A
N SABINE NF      N/A     61  59  94 MISG        N/A
S SABINE NF      N/A     57  55  94 S3          N/A
$$

SUPPLEMENTAL OBSERVATIONS ARE A COLLECTION OF AUTOMATED INSTRUMENTS
THAT ARE MAINTAINED BY A VARIETY OF FEDERAL AND STATE AGENCIES.
CERTAIN ELEMENTS...SUCH AS HUMIDITY VALUES AND SUSTAINED WIND
SPEEDS...MAY BE APPROXIMATED.





USA.gov is the U.S. government's official web portal to all federal, state and local government web resources and services.